Location: *
(17.3280°S, 114.7300°W)
Time: 10:43:55
(UTC+00:00)

Envisat - Pass Details

Date: 04 November 2020
Orbit: 764 x 766 km, 98.1° (Epoch: 28 November)

Event Time Altitude Azimuth Distance (km) Brightness Sun altitude
Rises 12:20:41 0° 36° (NE) 3,213 6.4 -9.5°
Reaches altitude 10° 12:23:14 10° 47° (NE) 2,294 5.8 -8.9°
Maximum altitude 12:27:33 29° 106° (ESE) 1,379 5.4 -7.9°
Drops below altitude 10° 12:31:54 10° 164° (SSE) 2,314 6.0 -7.0°
Sets 12:34:29 0° 175° (S) 3,246 6.6 -6.4°
